South Holston Lake Weather Center

Moon Phase Calendar



South Holston Lake Water Level
Online Cameras

 


      

Current Conditions in Fairmount
2/22/2024 1:28:46 AM

41°F
Feels Like 41
Clouds
Humidity
65%
Pressure
29.03"
Wind
1 mph (ESE)
Dew Point
31°F
UV Index
0/10 (Low)
Visibility
6 mi

Hourly Forecast

Date & Time Thu, Feb 22
1:00 AM
Thu, Feb 22
2:00 AM
Thu, Feb 22
3:00 AM
Thu, Feb 22
4:00 AM
Thu, Feb 22
5:00 AM
Thu, Feb 22
6:00 AM
Thu, Feb 22
7:00 AM
Thu, Feb 22
8:00 AM
Thu, Feb 22
9:00 AM
Thu, Feb 22
10:00 AM
Thu, Feb 22
11:00 AM
Thu, Feb 22
12:00 PM
Thu, Feb 22
1:00 PM
Thu, Feb 22
2:00 PM
Thu, Feb 22
3:00 PM
Thu, Feb 22
4:00 PM
Thu, Feb 22
5:00 PM
Thu, Feb 22
6:00 PM
Thu, Feb 22
7:00 PM
Thu, Feb 22
8:00 PM
Thu, Feb 22
9:00 PM
Thu, Feb 22
10:00 PM
Thu, Feb 22
11:00 PM
Fri, Feb 23
12:00 AM
Fri, Feb 23
1:00 AM
Fri, Feb 23
2:00 AM
Fri, Feb 23
3:00 AM
Fri, Feb 23
4:00 AM
Fri, Feb 23
5:00 AM
Fri, Feb 23
6:00 AM
Fri, Feb 23
7:00 AM
Fri, Feb 23
8:00 AM
Fri, Feb 23
9:00 AM
Fri, Feb 23
10:00 AM
Fri, Feb 23
11:00 AM
Fri, Feb 23
12:00 PM
Fri, Feb 23
1:00 PM
Fri, Feb 23
2:00 PM
Fri, Feb 23
3:00 PM
Fri, Feb 23
4:00 PM
Fri, Feb 23
5:00 PM
Fri, Feb 23
6:00 PM
Fri, Feb 23
7:00 PM
Fri, Feb 23
8:00 PM
Fri, Feb 23
9:00 PM
Fri, Feb 23
10:00 PM
Fri, Feb 23
11:00 PM
Sat, Feb 24
12:00 AM
Condition
Clouds

Clouds

Clouds

Clouds

Clouds

Clouds

Clouds

Clouds

Clouds

Clouds

Clouds

Clouds

Clouds

Clouds

Clouds

Clouds

Clouds

Clouds

Clouds

Rain

Rain

Rain

Rain

Rain

Rain

Rain

Rain

Rain

Rain

Rain

Rain

Rain

Rain

Rain

Rain

Clouds

Clouds

Clouds

Clouds

Clouds

Rain

Clouds

Clouds

Clear

Clouds

Rain

Rain

Rain
Temperature 41°F41°F42°F42°F41°F40°F40°F42°F47°F53°F57°F58°F57°F58°F59°F58°F56°F52°F50°F49°F49°F48°F48°F48°F49°F49°F49°F48°F49°F48°F48°F48°F46°F46°F47°F48°F50°F52°F53°F53°F51°F47°F44°F42°F41°F40°F39°F39°F
Feels Like 39°F39°F40°F40°F39°F38°F38°F40°F47°F50°F55°F56°F55°F56°F57°F56°F55°F51°F49°F49°F49°F48°F48°F47°F47°F48°F47°F47°F46°F46°F46°F45°F43°F45°F45°F46°F48°F50°F51°F51°F49°F44°F41°F40°F38°F37°F35°F35°F
Cloudiness 75%80%85%89%94%100%100%100%100%99%99%99%99%100%100%100%100%100%100%100%100%100%100%100%100%100%100%100%100%100%100%100%100%100%100%100%96%50%36%44%47%40%35%7%13%20%20%26%
Visibility 6 mi6 mi6 mi6 mi6 mi6 mi6 mi6 mi6 mi6 mi6 mi6 mi6 mi6 mi6 mi6 mi6 mi6 mi6 mi6 mi6 mi6 mi6 mi6 mi6 mi6 mi4 mi1 mi2 mi6 mi6 mi2 mi6 mi6 mi6 mi6 mi6 mi6 mi6 mi6 mi6 mi6 mi6 mi6 mi6 mi6 mi6 mi6 mi
Precipitation 0%0%0%0%0%0%0%0%0%0%0%0%0%0%0%0%0%1%24%68%72%83%80%84%87%100%100%100%100%100%100%91%90%90%99%79%78%0%4%9%29%9%9%14%23%35%39%46%
Humidity 65%69%71%74%78%81%82%77%66%55%50%51%55%56%57%63%69%79%83%88%90%94%94%97%95%94%97%99%98%98%97%97%94%94%88%81%71%64%59%59%64%72%81%86%91%94%97%97%
Dew Point 31°F32°F33°F34°F35°F34°F33°F34°F35°F36°F37°F39°F40°F41°F42°F44°F45°F44°F43°F44°F45°F45°F45°F46°F46°F46°F47°F47°F47°F46°F45°F45°F43°F42°F42°F41°F40°F39°F38°F38°F38°F37°F37°F37°F37°F37°F37°F37°F
Pressure 29.03"29.26"29.47"29.68"29.85"30.06"30.03"30"29.97"29.91"29.88"29.85"29.8"29.77"29.74"29.71"29.71"29.71"29.74"29.71"29.68"29.68"29.65"29.65"29.62"29.59"29.56"29.53"29.56"29.56"29.56"29.59"29.62"29.65"29.68"29.68"29.65"29.62"29.62"29.62"29.62"29.68"29.71"29.71"29.74"29.77"29.77"29.8"
Wind Speed 3.7 mph3.5 mph3.2 mph3.3 mph3.8 mph3.9 mph3.6 mph3.6 mph2.9 mph2.7 mph3.6 mph6 mph5.5 mph6.2 mph6.1 mph4.8 mph5.7 mph3.2 mph4 mph3.2 mph2.9 mph2.5 mph1.1 mph3.6 mph5.1 mph4.5 mph5.2 mph3.7 mph7.2 mph5.3 mph4.3 mph6.1 mph6.6 mph3.1 mph4.7 mph5.3 mph7.5 mph9.3 mph10.5 mph10.6 mph10.6 mph8.2 mph5.1 mph4.1 mph4.3 mph4.6 mph5 mph5.5 mph
Wind
Direction
127°
SE
124°
SE
137°
SE
135°
SE
137°
SE
138°
SE
139°
SE
128°
SE
150°
SSE
177°
S
221°
SW
246°
WSW
250°
WSW
252°
WSW
243°
WSW
236°
SW
265°
W
241°
WSW
236°
SW
166°
SSE
158°
SSE
170°
S
139°
SE
177°
S
198°
SSW
239°
WSW
253°
WSW
234°
SW
235°
SW
212°
SSW
227°
SW
303°
WNW
339°
NNW
307°
NW
297°
WNW
309°
NW
309°
NW
315°
NW
328°
NNW
321°
NW
314°
NW
316°
NW
311°
NW
294°
WNW
276°
W
263°
W
259°
W
264°
W

Daily Forecast

Date High Low Precip. Humidity
Today
Feb 22

Rain
59 °F
40 °F
83%
51%
Friday
Feb 23

Rain
53 °F
39 °F
100%
81%
Saturday
Feb 24

Snow
39 °F
29 °F
100%
98%
Sunday
Feb 25

Clear
51 °F
25 °F
0%
42%
Monday
Feb 26

Rain
53 °F
37 °F
58%
82%
Tuesday
Feb 27

Rain
59 °F
45 °F
100%
91%
Wednesday
Feb 28

Rain
68 °F
52 °F
33%
72%
Thursday
Feb 29

Clouds
68 °F
53 °F
4%
58%
Friday
Mar 1

Rain
60 °F
55 °F
100%
94%
Saturday
Mar 2

Rain
59 °F
46 °F
100%
91%
Sunday
Mar 3

Clear
49 °F
36 °F
4%
44%
Monday
Mar 4

Clear
54 °F
34 °F
0%
42%
Tuesday
Mar 5

Clouds
55 °F
38 °F
0%
53%
Wednesday
Mar 6

Clouds
52 °F
33 °F
0%
45%
Thursday
Mar 7

Clouds
58 °F
31 °F
0%
25%
Friday
Mar 8

Clear
63 °F
33 °F
0%
25%

Temperature 8-14 Day Outlook



Precipitation 8-14 Day Outlook




Quick Links
South Holston Lake News
South Holston Lake Photos
South Holston Lake Videos




About Us
Contact Us
Site Map
Search Site
Advertise With Us
   
SouthHolston.USLakes.info
THE SOUTH HOLSTON LAKE WEBSITE

Copyright 2024, Lakes Online
Privacy    |    Legal